Morgantown, WV

2:51 AM EST on November 20, 2017 (GMT -0500)
Morgantown Municipal-Hart

Weather History for KMGW - April, 2014

Change the Weather History Date:

Thursday, April 17, 2014

  Actual Average Record
Temperature  
Mean Temperature 52 °F 53 °F  
Max Temperature 66 °F 65 °F 89 °F (1969)
Min Temperature 37 °F 42 °F 22 °F (1962)
Degree Days  
Heating Degree Days 13 12  
Month to date heating degree days 197 249  
Since 1 July heating degree days 5186 4850  
Cooling Degree Days 0 0  
Month to date cooling degree days 18 0  
Year to date cooling degree days 18 2  
Moisture  
Dew Point 20 °F    
Average Humidity 30    
Maximum Humidity 40    
Minimum Humidity 20    
Precipitation  
Precipitation 0.00 in 0.12 in 0.41 in (1990)
Month to date precipitation 2.02 1.99  
Year to date precipitation 9.95 11.05  
Sea Level Pressure  
Sea Level Pressure 30.41 in    
Wind  
Wind Speed 9 mph (ESE)    
Max Wind Speed 18 mph    
Max Gust Speed 26 mph    
Visibility 10 miles    
Events      
T = Trace of Precipitation, MM = Missing Value Source: NWS Daily Summary

Daily Weather History Graph

Daily Weather History Graph

Search for Another Location

Airport or City:

Trip Planner

Search our weather history database for the weather conditions in past years. The results will help you decide how hot, cold, wet, or windy it might be!

Date:

Astronomy

Apr. 17, 2014 Rise Set
Actual Time 6:39 AM EDT 7:59 PM EDT
Civil Twilight 6:11 AM EDT 8:27 PM EDT
Nautical Twilight 5:37 AM EDT 9:01 PM EDT
Astronomical Twilight 5:02 AM EDT 9:36 PM EDT
Moon 10:43 PM EDT (4/17) 8:10 AM EDT (4/17)
Length of Visible Light 14h 16m
Length of Day
13h 20m
Waning Gibbous, 94% of the Moon is Illuminated
Apr 17
Waning Gibbous
Apr 22
Last Quarter
Apr 29
New
May 6
First Quarter
May 14
Full

Hourly Weather History & Observations

Time (EDT) Temp. Windchill Dew Point Humidity Pressure Visibility Wind Dir Wind Speed Gust Speed Precip Events Conditions
12:53 AM 41.0 °F 36.4 °F 12.9 °F 32% 30.42 in 10.0 mi East 6.9 mph - N/A   Clear
1:53 AM 41.0 °F 36.4 °F 12.0 °F 31% 30.41 in 10.0 mi Variable 6.9 mph 18.4 mph N/A   Clear
2:53 AM 39.9 °F 35.1 °F 12.9 °F 33% 30.41 in 10.0 mi Variable 6.9 mph - N/A   Clear
3:53 AM 39.0 °F 35.7 °F 12.9 °F 34% 30.42 in 10.0 mi Variable 4.6 mph - N/A   Clear
4:53 AM 39.0 °F 35.7 °F 14.0 °F 36% 30.43 in 10.0 mi Variable 4.6 mph - N/A   Clear
5:53 AM 37.9 °F 30.9 °F 15.1 °F 39% 30.44 in 10.0 mi ESE 10.4 mph - N/A   Clear
6:53 AM 37.9 °F 32.1 °F 15.1 °F 39% 30.45 in 10.0 mi ESE 8.1 mph - N/A   Clear
7:53 AM 39.9 °F 33.4 °F 16.0 °F 38% 30.48 in 10.0 mi SE 10.4 mph - N/A   Clear
8:53 AM 45.0 °F 40.6 °F 17.1 °F 33% 30.48 in 10.0 mi SE 8.1 mph - N/A   Clear
9:53 AM 50.0 °F - 19.0 °F 29% 30.49 in 10.0 mi SE 6.9 mph - N/A   Clear
10:53 AM 54.0 °F - 19.0 °F 25% 30.48 in 10.0 mi SE 5.8 mph - N/A   Clear
1:53 PM 63.0 °F - 21.9 °F 21% 30.42 in 10.0 mi Variable 6.9 mph - N/A   Clear
2:53 PM 64.0 °F - 27.0 °F 25% 30.40 in 10.0 mi ENE 11.5 mph - N/A   Clear
3:53 PM 64.9 °F - 25.0 °F 22% 30.38 in 10.0 mi NNE 10.4 mph - N/A   Clear
4:53 PM 64.9 °F - 25.0 °F 22% 30.37 in 10.0 mi ESE 10.4 mph - N/A   Clear
5:53 PM 64.0 °F - 23.0 °F 21% 30.36 in 10.0 mi East 11.5 mph 21.9 mph N/A   Clear
6:53 PM 62.1 °F - 24.1 °F 23% 30.36 in 10.0 mi ESE 11.5 mph - N/A   Clear
7:53 PM 57.9 °F - 24.1 °F 27% 30.35 in 10.0 mi ESE 13.8 mph 23.0 mph N/A   Clear
8:53 PM 55.9 °F - 24.1 °F 29% 30.35 in 10.0 mi ESE 12.7 mph 25.3 mph N/A   Clear
9:53 PM 54.0 °F - 24.1 °F 31% 30.36 in 10.0 mi SE 12.7 mph 20.7 mph N/A   Clear
10:53 PM 53.1 °F - 24.1 °F 32% 30.41 in 10.0 mi SE 9.2 mph - N/A   Clear
11:53 PM 52.0 °F - 24.1 °F 34% 30.38 in 10.0 mi ESE 9.2 mph - N/A   Clear